Weather Roundup
Issued by NWS Springfield, MO

Home | Current Version | Previous Version | Text Only | Print | Product List | Glossary On
Versions: 1 2 3 4 5 6 7 8 9 10 11 12 13 14 15 16 17 18 19 20 21 22 23 24 25 26 27 28 29 30 31 32 33 34 35 36 37 38 39 40 41 42 43 44 45 46 47 48 49 50
830
NZUS99 KSGF 220157
HRRSGF

HOURLY WEATHER
NATIONAL WEATHER SERVICE SPRINGFIELD MO
800 PM CST SAT JAN 21 2017

......SGF CWA......

CITY           SKY/WX    TMP DP  RH WIND       PRES   REMARKS
SPRINGFIELD    LGT RAIN  53  45  74 S7        29.50R
JOPLIN         CLOUDY    53  46  77 NE6       29.45F
WEST PLAINS    MOCLDY    59  50  72 SE7       29.53S
ROLLA          CLOUDY    53  41  63 NE3       29.52R
BRANSON        TSTM      50  50 100 CALM      29.51R

......SURROUNDING SGF CWA......

CITY           SKY/WX    TMP DP  RH WIND       PRES   REMARKS
CHANUTE        MOCLDY    51  39  63 E8        29.45F
PARSONS        CLOUDY    50  43  77 NE5       29.44F
COFFEYVILLE    MOCLDY    49  45  86 NE7       29.43S
EMPORIA        CLOUDY    46  44  93 N6        29.47F
HARRISON AR    LGT RAIN  52  51  97 NW3       29.50S

......KANSAS AND MISSOURI......

CITY           SKY/WX    TMP DP  RH WIND       PRES   REMARKS
KANSAS CTY INT CLOUDY    49  41  74 NE6       29.52R
SEDALIA        CLOUDY    52  42  69 SE5       29.53F
ST JOSEPH      CLOUDY    38  38 100 N3        29.54R
ST LOUIS       CLOUDY    58  40  51 NW5       29.55R
KIRKSVILLE     FOG       36  36 100 N3        29.56S VSB 1/2
WICHITA        CLOUDY    47  42  83 E8        29.43R
TOPEKA         LGT RAIN  47  43  86 CALM      29.51S
OLATHE         CLOUDY    46  44  93 SE5       29.52R

......TENNESSEE......

CITY           SKY/WX    TMP DP  RH WIND       PRES   REMARKS
MEMPHIS        NOT AVBL
NASHVILLE      CLOUDY    59  49  69 CALM      29.65R

......ARKANSAS.......

CITY           SKY/WX    TMP DP  RH WIND       PRES   REMARKS
FAYETTEVILLE   PTCLDY    53  50  89 NE3       29.44S
FT SMITH       CLOUDY    56  51  84 NE5       29.42S
LITTLE ROCK    CLOUDY    61  58  90 NE7       29.47F

......OKLAHOMA.......

CITY           SKY/WX    TMP DP  RH WIND       PRES   REMARKS
TULSA          MOCLDY    55  44  66 E3        29.40F
PONCA CITY     CLOUDY    52  38  58 E10       29.39F
MCALESTER      MOCLDY    60  54  80 S6        29.40F
OKLAHOMA CITY  CLOUDY    56  40  55 SE12      29.35F

......IOWA............

CITY           SKY/WX    TMP DP  RH WIND       PRES   REMARKS
DES MOINES     NOT AVBL
QUAD CITIES    CLOUDY    43  40  89 W3        29.57R

......ILLINOIS........

CITY           SKY/WX    TMP DP  RH WIND       PRES   REMARKS
QUINCY         CLOUDY    46  43  89 N8        29.56R
CHICAGO        CLEAR     46  41  82 W6        29.56R




USA.gov is the U.S. government's official web portal to all federal, state and local government web resources and services.